Year,Month,Day,Hour,Minute,Value (Times are PST for temperature in C)
2018,01,18,00,00,10.40
2018,01,18,00,01,10.30
2018,01,18,00,02,10.30
2018,01,18,00,03,10.30
2018,01,18,00,04,10.30
2018,01,18,00,05,10.30
2018,01,18,00,06,10.30
2018,01,18,00,07,10.30
2018,01,18,00,08,10.30
2018,01,18,00,09,10.20
2018,01,18,00,10,10.20
2018,01,18,00,11,10.20
2018,01,18,00,12,10.20
2018,01,18,00,13,10.20
2018,01,18,00,14,10.20
2018,01,18,00,15,10.20
2018,01,18,00,16,10.20
2018,01,18,00,17,10.20
2018,01,18,00,18,10.10
2018,01,18,00,19,10.10
2018,01,18,00,20,10.10
2018,01,18,00,21,10.20
2018,01,18,00,22,10.20
2018,01,18,00,23,10.20
2018,01,18,00,24,10.20
2018,01,18,00,25,10.30
2018,01,18,00,26,10.30
2018,01,18,00,27,10.30
2018,01,18,00,28,10.30
2018,01,18,00,29,10.40
2018,01,18,00,30,10.40
2018,01,18,00,31,10.40
2018,01,18,00,32,10.40
2018,01,18,00,33,10.40
2018,01,18,00,34,10.40
2018,01,18,00,35,10.40
2018,01,18,00,36,10.40
2018,01,18,00,37,10.40
2018,01,18,00,38,10.40
2018,01,18,00,39,10.40
2018,01,18,00,40,10.30
2018,01,18,00,41,10.30
2018,01,18,00,42,10.30
2018,01,18,00,43,10.30
2018,01,18,00,44,10.30
2018,01,18,00,45,10.30
2018,01,18,00,46,10.30
2018,01,18,00,47,10.30
2018,01,18,00,48,10.20
2018,01,18,00,49,10.20
2018,01,18,00,50,10.20
2018,01,18,00,51,10.20
2018,01,18,00,52,10.20
2018,01,18,00,53,10.20
2018,01,18,00,54,10.20
2018,01,18,00,55,10.20
2018,01,18,00,56,10.20
2018,01,18,00,57,10.20
2018,01,18,00,58,10.20
2018,01,18,00,59,10.30
2018,01,18,01,00,10.30
2018,01,18,01,01,10.20
2018,01,18,01,02,10.20
2018,01,18,01,03,10.20
2018,01,18,01,04,10.20
2018,01,18,01,05,10.20
2018,01,18,01,06,10.20
2018,01,18,01,07,10.20
2018,01,18,01,08,10.20
2018,01,18,01,09,10.20
2018,01,18,01,10,10.20
2018,01,18,01,11,10.20
2018,01,18,01,12,10.20
2018,01,18,01,13,10.20
2018,01,18,01,14,10.30
2018,01,18,01,15,10.30
2018,01,18,01,16,10.30
2018,01,18,01,17,10.30
2018,01,18,01,18,10.40
2018,01,18,01,19,10.40
2018,01,18,01,20,10.40
2018,01,18,01,21,10.40
2018,01,18,01,22,10.40
2018,01,18,01,23,10.40
2018,01,18,01,24,10.40
2018,01,18,01,25,10.50
2018,01,18,01,26,10.50
2018,01,18,01,27,10.60
2018,01,18,01,28,10.60
2018,01,18,01,29,10.60
2018,01,18,01,30,10.60
2018,01,18,01,31,10.60
2018,01,18,01,32,10.70
2018,01,18,01,33,10.70
2018,01,18,01,34,10.70
2018,01,18,01,35,10.70
2018,01,18,01,36,10.70
2018,01,18,01,37,10.70
2018,01,18,01,38,10.60
2018,01,18,01,39,10.60
2018,01,18,01,40,10.50
2018,01,18,01,41,10.50
2018,01,18,01,42,10.40
2018,01,18,01,43,10.40
2018,01,18,01,44,10.40
2018,01,18,01,45,10.30
2018,01,18,01,46,10.30
2018,01,18,01,47,10.30
2018,01,18,01,48,10.30
2018,01,18,01,49,10.30
2018,01,18,01,50,10.20
2018,01,18,01,51,10.20
2018,01,18,01,52,10.20
2018,01,18,01,53,10.20
2018,01,18,01,54,10.10
2018,01,18,01,55,10.10
2018,01,18,01,56,10.10
2018,01,18,01,57,10.00
2018,01,18,01,58,10.00
2018,01,18,01,59,10.00
2018,01,18,02,00,10.00
2018,01,18,02,01,10.00
2018,01,18,02,02,10.00
2018,01,18,02,03,9.90
2018,01,18,02,04,9.90
2018,01,18,02,05,9.90
2018,01,18,02,06,9.90
2018,01,18,02,07,9.90
2018,01,18,02,08,9.90
2018,01,18,02,09,9.90
2018,01,18,02,10,10.00
2018,01,18,02,11,10.00
2018,01,18,02,12,10.00
2018,01,18,02,13,10.00
2018,01,18,02,14,10.00
2018,01,18,02,15,10.00
2018,01,18,02,16,10.00
2018,01,18,02,17,10.00
2018,01,18,02,18,10.00
2018,01,18,02,19,10.00
2018,01,18,02,20,10.00
2018,01,18,02,21,10.00
2018,01,18,02,22,9.90
2018,01,18,02,23,9.90
2018,01,18,02,24,9.90
2018,01,18,02,25,9.90
2018,01,18,02,26,9.90
2018,01,18,02,27,9.80
2018,01,18,02,28,9.80
2018,01,18,02,29,9.80
2018,01,18,02,30,9.80
2018,01,18,02,31,9.80
2018,01,18,02,32,9.70
2018,01,18,02,33,9.70
2018,01,18,02,34,9.70
2018,01,18,02,35,9.70
2018,01,18,02,36,9.70
2018,01,18,02,37,9.70
2018,01,18,02,38,9.70
2018,01,18,02,39,9.70
2018,01,18,02,40,9.70
2018,01,18,02,41,9.70
2018,01,18,02,42,9.70
2018,01,18,02,43,9.70
2018,01,18,02,44,9.80
2018,01,18,02,45,9.80
2018,01,18,02,46,9.80
2018,01,18,02,47,9.80
2018,01,18,02,48,9.80
2018,01,18,02,49,9.80
2018,01,18,02,50,9.80
2018,01,18,02,51,9.80
2018,01,18,02,52,9.80
2018,01,18,02,53,9.80
2018,01,18,02,54,9.80
2018,01,18,02,55,9.80
2018,01,18,02,56,9.90
2018,01,18,02,57,9.80
2018,01,18,02,58,9.80
2018,01,18,02,59,9.80
2018,01,18,03,00,9.80
2018,01,18,03,01,9.80
2018,01,18,03,02,9.80
2018,01,18,03,03,9.80
2018,01,18,03,04,9.80
2018,01,18,03,05,9.80
2018,01,18,03,06,9.80
2018,01,18,03,07,9.80
2018,01,18,03,08,9.80
2018,01,18,03,09,9.80
2018,01,18,03,10,9.80
2018,01,18,03,11,9.80
2018,01,18,03,12,9.80
2018,01,18,03,13,9.70
2018,01,18,03,14,9.70
2018,01,18,03,15,9.70
2018,01,18,03,16,9.70
2018,01,18,03,17,9.70
2018,01,18,03,18,9.70
2018,01,18,03,19,9.70
2018,01,18,03,20,9.70
2018,01,18,03,21,9.70
2018,01,18,03,22,9.70
2018,01,18,03,23,9.70
2018,01,18,03,24,9.70
2018,01,18,03,25,9.70
2018,01,18,03,26,9.70
2018,01,18,03,27,9.70
2018,01,18,03,28,9.70
2018,01,18,03,29,9.60
2018,01,18,03,30,9.60
2018,01,18,03,31,9.60
2018,01,18,03,32,9.60
2018,01,18,03,33,9.50
2018,01,18,03,34,9.50
2018,01,18,03,35,9.50
2018,01,18,03,36,9.50
2018,01,18,03,37,9.50
2018,01,18,03,38,9.50
2018,01,18,03,39,9.40
2018,01,18,03,40,9.40
2018,01,18,03,41,9.40
2018,01,18,03,42,9.40
2018,01,18,03,43,9.40
2018,01,18,03,44,9.40
2018,01,18,03,45,9.40
2018,01,18,03,46,9.40
2018,01,18,03,47,9.40
2018,01,18,03,48,9.40
2018,01,18,03,49,9.40
2018,01,18,03,50,9.40
2018,01,18,03,51,9.40
2018,01,18,03,52,9.30
2018,01,18,03,53,9.30
2018,01,18,03,54,9.30
2018,01,18,03,55,9.30
2018,01,18,03,56,9.30
2018,01,18,03,57,9.30
2018,01,18,03,58,9.20
2018,01,18,03,59,9.20
2018,01,18,04,00,9.20
2018,01,18,04,01,9.20
2018,01,18,04,02,9.20
2018,01,18,04,03,9.10
2018,01,18,04,04,9.10
2018,01,18,04,05,9.10
2018,01,18,04,06,9.10
2018,01,18,04,07,9.10
2018,01,18,04,08,9.10
2018,01,18,04,09,9.10
2018,01,18,04,10,9.10
2018,01,18,04,11,9.00
2018,01,18,04,12,9.00
2018,01,18,04,13,9.00
2018,01,18,04,14,9.00
2018,01,18,04,15,9.00
2018,01,18,04,16,9.00
2018,01,18,04,17,9.00
2018,01,18,04,18,9.00
2018,01,18,04,19,9.00
2018,01,18,04,20,9.00
2018,01,18,04,21,9.00
2018,01,18,04,22,9.00
2018,01,18,04,23,9.00
2018,01,18,04,24,9.10
2018,01,18,04,25,9.10
2018,01,18,04,26,9.10
2018,01,18,04,27,9.10
2018,01,18,04,28,9.10
2018,01,18,04,29,9.10
2018,01,18,04,30,9.10
2018,01,18,04,31,9.10
2018,01,18,04,32,9.10
2018,01,18,04,33,9.10
2018,01,18,04,34,9.10
2018,01,18,04,35,9.10
2018,01,18,04,36,9.10
2018,01,18,04,37,9.10
2018,01,18,04,38,9.10
2018,01,18,04,39,9.10
2018,01,18,04,40,9.10
2018,01,18,04,41,9.00
2018,01,18,04,42,9.00
2018,01,18,04,43,9.00
2018,01,18,04,44,9.00
2018,01,18,04,45,8.90
2018,01,18,04,46,8.90
2018,01,18,04,47,8.90
2018,01,18,04,48,8.90
2018,01,18,04,49,8.90
2018,01,18,04,50,8.90
2018,01,18,04,51,8.90
2018,01,18,04,52,8.80
2018,01,18,04,53,8.80
2018,01,18,04,54,8.80
2018,01,18,04,55,8.80
2018,01,18,04,56,8.70
2018,01,18,04,57,8.70
2018,01,18,04,58,8.70
2018,01,18,04,59,8.70
2018,01,18,05,00,8.70
2018,01,18,05,01,8.60
2018,01,18,05,02,8.60
2018,01,18,05,03,8.60
2018,01,18,05,04,8.60
2018,01,18,05,05,8.60
2018,01,18,05,06,8.60
2018,01,18,05,07,8.60
2018,01,18,05,08,8.60
2018,01,18,05,09,8.60
2018,01,18,05,10,8.60
2018,01,18,05,11,8.60
2018,01,18,05,12,8.70
2018,01,18,05,13,8.70
2018,01,18,05,14,8.70
2018,01,18,05,15,8.70
2018,01,18,05,16,8.60
2018,01,18,05,17,8.60
2018,01,18,05,18,8.60
2018,01,18,05,19,8.60
2018,01,18,05,20,8.60
2018,01,18,05,21,8.60
2018,01,18,05,22,8.60
2018,01,18,05,23,8.60
2018,01,18,05,24,8.60
2018,01,18,05,25,8.60
2018,01,18,05,26,8.60
2018,01,18,05,27,8.60
2018,01,18,05,28,8.60
2018,01,18,05,29,8.50
2018,01,18,05,30,8.50
2018,01,18,05,31,8.50
2018,01,18,05,32,8.50
2018,01,18,05,33,8.50
2018,01,18,05,34,8.60
2018,01,18,05,35,8.50
2018,01,18,05,36,8.50
2018,01,18,05,37,8.60
2018,01,18,05,38,8.60
2018,01,18,05,39,8.60
2018,01,18,05,40,8.60
2018,01,18,05,41,8.60
2018,01,18,05,42,8.60
2018,01,18,05,43,8.70
2018,01,18,05,44,8.70
2018,01,18,05,45,8.70
2018,01,18,05,46,8.70
2018,01,18,05,47,8.70
2018,01,18,05,48,8.70
2018,01,18,05,49,8.70
2018,01,18,05,50,8.70
2018,01,18,05,51,8.70
2018,01,18,05,52,8.70
2018,01,18,05,53,8.70
2018,01,18,05,54,8.70
2018,01,18,05,55,8.70
2018,01,18,05,56,8.70
2018,01,18,05,57,8.70
2018,01,18,05,58,8.70
2018,01,18,05,59,8.70
2018,01,18,06,00,8.70
2018,01,18,06,01,8.70
2018,01,18,06,02,8.70
2018,01,18,06,03,8.60
2018,01,18,06,04,8.60
2018,01,18,06,05,8.60
2018,01,18,06,06,8.60
2018,01,18,06,07,8.60
2018,01,18,06,08,8.50
2018,01,18,06,09,8.50
2018,01,18,06,10,8.50
2018,01,18,06,11,8.50
2018,01,18,06,12,8.50
2018,01,18,06,13,8.60
2018,01,18,06,14,8.60
2018,01,18,06,15,8.60
2018,01,18,06,16,8.60
2018,01,18,06,17,8.70
2018,01,18,06,18,8.70
2018,01,18,06,19,8.70
2018,01,18,06,20,8.70
2018,01,18,06,21,8.70
2018,01,18,06,22,8.70
2018,01,18,06,23,8.70
2018,01,18,06,24,8.70
2018,01,18,06,25,8.70
2018,01,18,06,26,8.70
2018,01,18,06,27,8.80
2018,01,18,06,28,8.80
2018,01,18,06,29,8.80
2018,01,18,06,30,8.70
2018,01,18,06,31,8.70
2018,01,18,06,32,8.60
2018,01,18,06,33,8.60
2018,01,18,06,34,8.60
2018,01,18,06,35,8.50
2018,01,18,06,36,8.40
2018,01,18,06,37,8.40
2018,01,18,06,38,8.40
2018,01,18,06,39,8.30
2018,01,18,06,40,8.30
2018,01,18,06,41,8.30
2018,01,18,06,42,8.30
2018,01,18,06,43,8.30
2018,01,18,06,44,8.20
2018,01,18,06,45,8.20
2018,01,18,06,46,8.20
2018,01,18,06,47,8.20
2018,01,18,06,48,8.20
2018,01,18,06,49,8.20
2018,01,18,06,50,8.20
2018,01,18,06,51,8.20
2018,01,18,06,52,8.20
2018,01,18,06,53,8.20
2018,01,18,06,54,8.20
2018,01,18,06,55,8.20
2018,01,18,06,56,8.20
2018,01,18,06,57,8.20
2018,01,18,06,58,8.20
2018,01,18,06,59,8.20
2018,01,18,07,00,8.20
2018,01,18,07,01,8.20
2018,01,18,07,02,8.10
2018,01,18,07,03,8.10
2018,01,18,07,04,8.10
2018,01,18,07,05,8.10
2018,01,18,07,06,8.10
2018,01,18,07,07,8.10
2018,01,18,07,08,8.10
2018,01,18,07,09,8.10
2018,01,18,07,10,8.10
2018,01,18,07,11,8.10
2018,01,18,07,12,8.10
2018,01,18,07,13,8.10
2018,01,18,07,14,8.10
2018,01,18,07,15,8.10
2018,01,18,07,16,8.10
2018,01,18,07,17,8.10
2018,01,18,07,18,8.10
2018,01,18,07,19,8.10
2018,01,18,07,20,8.10
2018,01,18,07,21,8.00
2018,01,18,07,22,8.00
2018,01,18,07,23,7.90
2018,01,18,07,24,7.90
2018,01,18,07,25,7.90
2018,01,18,07,26,7.90
2018,01,18,07,27,7.90
2018,01,18,07,28,7.90
2018,01,18,07,29,7.90
2018,01,18,07,30,7.90
2018,01,18,07,31,7.90
2018,01,18,07,32,7.90
2018,01,18,07,33,7.90
2018,01,18,07,34,7.80
2018,01,18,07,35,7.80
2018,01,18,07,36,7.80
2018,01,18,07,37,7.80
2018,01,18,07,38,7.80
2018,01,18,07,39,7.80
2018,01,18,07,40,7.80
2018,01,18,07,41,7.80
2018,01,18,07,42,7.70
2018,01,18,07,43,7.70
2018,01,18,07,44,7.70
2018,01,18,07,45,7.70
2018,01,18,07,46,7.70
2018,01,18,07,47,7.70
2018,01,18,07,48,7.70
2018,01,18,07,49,7.70
2018,01,18,07,50,7.70
2018,01,18,07,51,7.70
2018,01,18,07,52,7.70
2018,01,18,07,53,7.70
2018,01,18,07,54,7.70
2018,01,18,07,55,7.70
2018,01,18,07,56,7.70
2018,01,18,07,57,7.70
2018,01,18,07,58,7.80
2018,01,18,07,59,7.80
2018,01,18,08,00,7.80
2018,01,18,08,01,7.80
2018,01,18,08,02,7.80
2018,01,18,08,03,7.80
2018,01,18,08,04,7.80
2018,01,18,08,05,7.80
2018,01,18,08,06,7.90
2018,01,18,08,07,7.90
2018,01,18,08,08,7.90
2018,01,18,08,09,7.90
2018,01,18,08,10,7.90
2018,01,18,08,11,7.90
2018,01,18,08,12,7.90
2018,01,18,08,13,8.00
2018,01,18,08,14,8.00
2018,01,18,08,15,8.00
2018,01,18,08,16,8.00
2018,01,18,08,17,8.00
2018,01,18,08,18,8.00
2018,01,18,08,19,8.00
2018,01,18,08,20,8.00
2018,01,18,08,21,8.00
2018,01,18,08,22,8.00
2018,01,18,08,23,8.00
2018,01,18,08,24,8.00
2018,01,18,08,25,8.00
2018,01,18,08,26,8.00
2018,01,18,08,27,8.00
2018,01,18,08,28,8.00
2018,01,18,08,29,7.90
2018,01,18,08,30,7.90
2018,01,18,08,31,7.90
2018,01,18,08,32,7.90
2018,01,18,08,33,7.90
2018,01,18,08,34,7.90
2018,01,18,08,35,7.90
2018,01,18,08,36,7.90
2018,01,18,08,37,7.90
2018,01,18,08,38,7.80
2018,01,18,08,39,7.80
2018,01,18,08,40,7.80
2018,01,18,08,41,7.80
2018,01,18,08,42,7.80
2018,01,18,08,43,7.80
2018,01,18,08,44,7.80
2018,01,18,08,45,7.70
2018,01,18,08,46,7.70
2018,01,18,08,47,7.70
2018,01,18,08,48,7.70
2018,01,18,08,49,7.70
2018,01,18,08,50,7.70
2018,01,18,08,51,7.70
2018,01,18,08,52,7.70
2018,01,18,08,53,7.70
2018,01,18,08,54,7.70
2018,01,18,08,55,7.70
2018,01,18,08,56,7.70
2018,01,18,08,57,7.70
2018,01,18,08,58,7.70
2018,01,18,08,59,7.70
2018,01,18,09,00,7.70
2018,01,18,09,01,7.70
2018,01,18,09,02,7.70
2018,01,18,09,03,7.70
2018,01,18,09,04,7.70
2018,01,18,09,05,7.70
2018,01,18,09,06,7.70
2018,01,18,09,07,7.70
2018,01,18,09,08,7.70
2018,01,18,09,09,7.70
2018,01,18,09,10,7.70
2018,01,18,09,11,7.70
2018,01,18,09,12,7.70
2018,01,18,09,13,7.70
2018,01,18,09,14,7.80
2018,01,18,09,15,7.80
2018,01,18,09,16,7.80
2018,01,18,09,17,7.80
2018,01,18,09,18,7.80
2018,01,18,09,19,7.80
2018,01,18,09,20,7.90
2018,01,18,09,21,7.90
2018,01,18,09,22,7.90
2018,01,18,09,23,7.90
2018,01,18,09,24,7.90
2018,01,18,09,25,7.90
2018,01,18,09,26,7.90
2018,01,18,09,27,7.90
2018,01,18,09,28,7.90
2018,01,18,09,29,8.00
2018,01,18,09,30,8.00
2018,01,18,09,31,8.00
2018,01,18,09,32,8.00
2018,01,18,09,33,8.10
2018,01,18,09,34,8.10
2018,01,18,09,35,8.10
2018,01,18,09,36,8.20
2018,01,18,09,37,8.20
2018,01,18,09,38,8.20
2018,01,18,09,39,8.20
2018,01,18,09,40,8.30
2018,01,18,09,41,8.30
2018,01,18,09,42,8.30
2018,01,18,09,43,8.30
2018,01,18,09,44,8.40
2018,01,18,09,45,8.40
2018,01,18,09,46,8.40
2018,01,18,09,47,8.50
2018,01,18,09,48,8.50
2018,01,18,09,49,8.60
2018,01,18,09,50,8.60
2018,01,18,09,51,8.60
2018,01,18,09,52,8.50
2018,01,18,09,53,8.50
2018,01,18,09,54,8.50
2018,01,18,09,55,8.50
2018,01,18,09,56,8.50
2018,01,18,09,57,8.50
2018,01,18,09,58,8.60
2018,01,18,09,59,8.60
2018,01,18,10,00,8.60
2018,01,18,10,01,8.60
2018,01,18,10,02,8.50
2018,01,18,10,03,8.50
2018,01,18,10,04,8.60
2018,01,18,10,05,8.60
2018,01,18,10,06,8.60
2018,01,18,10,07,8.60
2018,01,18,10,08,8.60
2018,01,18,10,09,8.70
2018,01,18,10,10,8.70
2018,01,18,10,11,8.70
2018,01,18,10,12,8.70
2018,01,18,10,13,8.80
2018,01,18,10,14,8.80
2018,01,18,10,15,8.80
2018,01,18,10,16,8.80
2018,01,18,10,17,8.90
2018,01,18,10,18,9.10
2018,01,18,10,19,9.20
2018,01,18,10,20,9.30
2018,01,18,10,21,9.30
2018,01,18,10,22,9.40
2018,01,18,10,23,9.40
2018,01,18,10,24,9.50
2018,01,18,10,25,9.50
2018,01,18,10,26,9.50
2018,01,18,10,27,9.50
2018,01,18,10,28,9.60
2018,01,18,10,29,9.60
2018,01,18,10,30,9.60
2018,01,18,10,31,9.60
2018,01,18,10,32,9.60
2018,01,18,10,33,9.60
2018,01,18,10,34,9.60
2018,01,18,10,35,9.60
2018,01,18,10,36,9.50
2018,01,18,10,37,9.50
2018,01,18,10,38,9.50
2018,01,18,10,39,9.50
2018,01,18,10,40,9.50
2018,01,18,10,41,9.50
2018,01,18,10,42,9.40
2018,01,18,10,43,9.40
2018,01,18,10,44,9.40
2018,01,18,10,45,9.40
2018,01,18,10,46,9.40
2018,01,18,10,47,9.40
2018,01,18,10,48,9.30
2018,01,18,10,49,9.40
2018,01,18,10,50,9.40
2018,01,18,10,51,9.40
2018,01,18,10,52,9.30
2018,01,18,10,53,9.30
2018,01,18,10,54,9.30
2018,01,18,10,55,9.30
2018,01,18,10,56,9.30
2018,01,18,10,57,9.30
2018,01,18,10,58,9.30
2018,01,18,10,59,9.30
2018,01,18,11,00,9.30
2018,01,18,11,01,9.20
2018,01,18,11,02,9.20
2018,01,18,11,03,9.20
2018,01,18,11,04,9.20
2018,01,18,11,05,9.20
2018,01,18,11,06,9.20
2018,01,18,11,07,9.10
2018,01,18,11,08,9.10
2018,01,18,11,09,9.20
2018,01,18,11,10,9.20
2018,01,18,11,11,9.20
2018,01,18,11,12,9.20
2018,01,18,11,13,9.20
2018,01,18,11,14,9.20
2018,01,18,11,15,9.20
2018,01,18,11,16,9.20
2018,01,18,11,17,9.20
2018,01,18,11,18,9.10
2018,01,18,11,19,9.20
2018,01,18,11,20,9.20
2018,01,18,11,21,9.20
2018,01,18,11,22,9.20
2018,01,18,11,23,9.20
2018,01,18,11,24,9.20
2018,01,18,11,25,9.20
2018,01,18,11,26,9.20
2018,01,18,11,27,9.20
2018,01,18,11,28,9.30
2018,01,18,11,29,9.20
2018,01,18,11,30,9.20
2018,01,18,11,31,9.20
2018,01,18,11,32,9.20
2018,01,18,11,33,9.20
2018,01,18,11,34,9.20
2018,01,18,11,35,9.20
2018,01,18,11,36,9.20
2018,01,18,11,37,9.20
2018,01,18,11,38,9.20
2018,01,18,11,39,9.10
2018,01,18,11,40,9.10
2018,01,18,11,41,9.10
2018,01,18,11,42,9.10
2018,01,18,11,43,9.10
2018,01,18,11,44,9.10
2018,01,18,11,45,9.10
2018,01,18,11,46,9.00
2018,01,18,11,47,9.00
2018,01,18,11,48,9.00
2018,01,18,11,49,9.00
2018,01,18,11,50,8.90
2018,01,18,11,51,8.90
2018,01,18,11,52,8.90
2018,01,18,11,53,8.90
2018,01,18,11,54,8.90
2018,01,18,11,55,8.90
2018,01,18,11,56,8.90
2018,01,18,11,57,8.90
2018,01,18,11,58,8.90
2018,01,18,11,59,8.90
2018,01,18,12,00,8.90
2018,01,18,12,01,8.80
2018,01,18,12,02,8.90
2018,01,18,12,03,8.90
2018,01,18,12,04,8.90
2018,01,18,12,05,8.90
2018,01,18,12,06,8.90
2018,01,18,12,07,9.00
2018,01,18,12,08,9.00
2018,01,18,12,09,9.00
2018,01,18,12,10,9.10
2018,01,18,12,11,9.10
2018,01,18,12,12,9.10
2018,01,18,12,13,9.10
2018,01,18,12,14,9.10
2018,01,18,12,15,9.10
2018,01,18,12,16,9.10
2018,01,18,12,17,9.20
2018,01,18,12,18,9.20
2018,01,18,12,19,9.20
2018,01,18,12,20,9.20
2018,01,18,12,21,9.20
2018,01,18,12,22,9.20
2018,01,18,12,23,9.20
2018,01,18,12,24,9.20
2018,01,18,12,25,9.20
2018,01,18,12,26,9.20
2018,01,18,12,27,9.20
2018,01,18,12,28,9.20
2018,01,18,12,29,9.20
2018,01,18,12,30,9.20
2018,01,18,12,31,9.20
2018,01,18,12,32,9.20
2018,01,18,12,33,9.20
2018,01,18,12,34,9.20
2018,01,18,12,35,9.20
2018,01,18,12,36,9.20
2018,01,18,12,37,9.20
2018,01,18,12,38,9.20
2018,01,18,12,39,9.10
2018,01,18,12,40,9.10
2018,01,18,12,41,9.10
2018,01,18,12,42,9.10
2018,01,18,12,43,9.10
2018,01,18,12,44,9.10
2018,01,18,12,45,9.10
2018,01,18,12,46,9.10
2018,01,18,12,47,9.10
2018,01,18,12,48,9.10
2018,01,18,12,49,9.10
2018,01,18,12,50,9.10
2018,01,18,12,51,9.10
2018,01,18,12,52,9.10
2018,01,18,12,53,9.20
2018,01,18,12,54,9.20
2018,01,18,12,55,9.20
2018,01,18,12,56,9.20
2018,01,18,12,57,9.30
2018,01,18,12,58,9.30
2018,01,18,12,59,9.30
2018,01,18,13,00,9.30
2018,01,18,13,01,9.30
2018,01,18,13,02,9.30
2018,01,18,13,03,9.30
2018,01,18,13,04,9.30
2018,01,18,13,05,9.30
2018,01,18,13,06,9.30
2018,01,18,13,07,9.30
2018,01,18,13,08,9.30
2018,01,18,13,09,9.30
2018,01,18,13,10,9.20
2018,01,18,13,11,9.20
2018,01,18,13,12,9.20
2018,01,18,13,13,9.20
2018,01,18,13,14,9.20
2018,01,18,13,15,9.20
2018,01,18,13,16,9.20
2018,01,18,13,17,9.10
2018,01,18,13,18,9.10
2018,01,18,13,19,9.10
2018,01,18,13,20,9.10
2018,01,18,13,21,9.10
2018,01,18,13,22,9.10
2018,01,18,13,23,9.10
2018,01,18,13,24,9.10
2018,01,18,13,25,9.10
2018,01,18,13,26,9.10
2018,01,18,13,27,9.10
2018,01,18,13,28,9.10
2018,01,18,13,29,9.10
2018,01,18,13,30,9.10
2018,01,18,13,31,9.10
2018,01,18,13,32,9.10
2018,01,18,13,33,9.10
2018,01,18,13,34,9.10
2018,01,18,13,35,9.10
2018,01,18,13,36,9.10
2018,01,18,13,37,9.10
2018,01,18,13,38,9.10
2018,01,18,13,39,9.10
2018,01,18,13,40,9.10
2018,01,18,13,41,9.10
2018,01,18,13,42,9.10
2018,01,18,13,43,9.20
2018,01,18,13,44,9.20
2018,01,18,13,45,9.20
2018,01,18,13,46,9.30
2018,01,18,13,47,9.30
2018,01,18,13,48,9.40
2018,01,18,13,49,9.40
2018,01,18,13,50,9.40
2018,01,18,13,51,9.50
2018,01,18,13,52,9.50
2018,01,18,13,53,9.40
2018,01,18,13,54,9.40
2018,01,18,13,55,9.40
2018,01,18,13,56,9.40
2018,01,18,13,57,9.30
2018,01,18,13,58,9.30
2018,01,18,13,59,9.30
2018,01,18,14,00,9.20
2018,01,18,14,01,9.20
2018,01,18,14,02,9.20
2018,01,18,14,03,9.20
2018,01,18,14,04,9.20
2018,01,18,14,05,9.20
2018,01,18,14,06,9.20
2018,01,18,14,07,9.10
2018,01,18,14,08,9.00
2018,01,18,14,09,9.00
2018,01,18,14,10,9.00
2018,01,18,14,11,9.00
2018,01,18,14,12,9.00
2018,01,18,14,13,8.90
2018,01,18,14,14,8.80
2018,01,18,14,15,8.80
2018,01,18,14,16,8.80
2018,01,18,14,17,8.80
2018,01,18,14,18,8.80
2018,01,18,14,19,8.80
2018,01,18,14,20,8.70
2018,01,18,14,21,8.70
2018,01,18,14,22,8.70
2018,01,18,14,23,8.70
2018,01,18,14,24,8.70
2018,01,18,14,25,8.70
2018,01,18,14,26,8.70
2018,01,18,14,27,8.70
2018,01,18,14,28,8.60
2018,01,18,14,29,8.60
2018,01,18,14,30,8.60
2018,01,18,14,31,8.60
2018,01,18,14,32,8.60
2018,01,18,14,33,8.60
2018,01,18,14,34,8.60
2018,01,18,14,35,8.60
2018,01,18,14,36,8.60
2018,01,18,14,37,8.60
2018,01,18,14,38,8.60
2018,01,18,14,39,8.60
2018,01,18,14,40,8.60
2018,01,18,14,41,8.60
2018,01,18,14,42,8.60
2018,01,18,14,43,8.60
2018,01,18,14,44,8.60
2018,01,18,14,45,8.50
2018,01,18,14,46,8.50
2018,01,18,14,47,8.50
2018,01,18,14,48,8.60
2018,01,18,14,49,8.60
2018,01,18,14,50,8.60
2018,01,18,14,51,8.60
2018,01,18,14,52,8.60
2018,01,18,14,53,8.60
2018,01,18,14,54,8.60
2018,01,18,14,55,8.60
2018,01,18,14,56,8.60
2018,01,18,14,57,8.60
2018,01,18,14,58,8.60
2018,01,18,14,59,8.60
2018,01,18,15,00,8.60
2018,01,18,15,01,8.60
2018,01,18,15,02,8.60
2018,01,18,15,03,8.60
2018,01,18,15,04,8.60
2018,01,18,15,05,8.60
2018,01,18,15,06,8.50
2018,01,18,15,07,8.50
2018,01,18,15,08,8.50
2018,01,18,15,09,8.50
2018,01,18,15,10,8.50
2018,01,18,15,11,8.50
2018,01,18,15,12,8.50
2018,01,18,15,13,8.50
2018,01,18,15,14,8.50
2018,01,18,15,15,8.50
2018,01,18,15,16,8.50
2018,01,18,15,17,8.50
2018,01,18,15,18,8.50
2018,01,18,15,19,8.60
2018,01,18,15,20,8.60
2018,01,18,15,21,8.60
2018,01,18,15,22,8.70
2018,01,18,15,23,8.70
2018,01,18,15,24,8.70
2018,01,18,15,25,8.80
2018,01,18,15,26,8.80
2018,01,18,15,27,8.80
2018,01,18,15,28,8.90
2018,01,18,15,29,8.90
2018,01,18,15,30,8.90
2018,01,18,15,31,9.00
2018,01,18,15,32,9.00
2018,01,18,15,33,9.10
2018,01,18,15,34,9.10
2018,01,18,15,35,9.10
2018,01,18,15,36,9.10
2018,01,18,15,37,9.10
2018,01,18,15,38,9.10
2018,01,18,15,39,9.10
2018,01,18,15,40,9.10
2018,01,18,15,41,9.00
2018,01,18,15,42,9.00
2018,01,18,15,43,9.00
2018,01,18,15,44,9.10
2018,01,18,15,45,9.10
2018,01,18,15,46,9.10
2018,01,18,15,47,9.10
2018,01,18,15,48,9.10
2018,01,18,15,49,9.10
2018,01,18,15,50,9.10
2018,01,18,15,51,9.20
2018,01,18,15,52,9.30
2018,01,18,15,53,9.30
2018,01,18,15,54,9.30
2018,01,18,15,55,9.30
2018,01,18,15,56,9.30
2018,01,18,15,57,9.30
2018,01,18,15,58,9.30
2018,01,18,15,59,9.20
2018,01,18,16,00,9.20
2018,01,18,16,01,9.20
2018,01,18,16,02,9.10
2018,01,18,16,03,9.10
2018,01,18,16,04,9.10
2018,01,18,16,05,9.00
2018,01,18,16,06,9.00
2018,01,18,16,07,8.90
2018,01,18,16,08,8.90
2018,01,18,16,09,8.90
2018,01,18,16,10,8.80
2018,01,18,16,11,8.80
2018,01,18,16,12,8.80
2018,01,18,16,13,8.80
2018,01,18,16,14,8.80
2018,01,18,16,15,8.70
2018,01,18,16,16,8.70
2018,01,18,16,17,8.70
2018,01,18,16,18,8.70
2018,01,18,16,19,8.60
2018,01,18,16,20,8.60
2018,01,18,16,21,8.60
2018,01,18,16,22,8.60
2018,01,18,16,23,8.60
2018,01,18,16,24,8.50
2018,01,18,16,25,8.50
2018,01,18,16,26,8.50
2018,01,18,16,27,8.40
2018,01,18,16,28,8.40
2018,01,18,16,29,8.40
2018,01,18,16,30,8.40
2018,01,18,16,31,8.40
2018,01,18,16,32,8.40
2018,01,18,16,33,8.40
2018,01,18,16,34,8.40
2018,01,18,16,35,8.40
2018,01,18,16,36,8.40
2018,01,18,16,37,8.40
2018,01,18,16,38,8.40
2018,01,18,16,39,8.40
2018,01,18,16,40,8.40
2018,01,18,16,41,8.40
2018,01,18,16,42,8.30
2018,01,18,16,43,8.30
2018,01,18,16,44,8.30
2018,01,18,16,45,8.30
2018,01,18,16,46,8.30
2018,01,18,16,47,8.30
2018,01,18,16,48,8.30
2018,01,18,16,49,8.30
2018,01,18,16,50,8.30
2018,01,18,16,51,8.30
2018,01,18,16,52,8.30
2018,01,18,16,53,8.30
2018,01,18,16,54,8.30
2018,01,18,16,55,8.30
2018,01,18,16,56,8.30
2018,01,18,16,57,8.20
2018,01,18,16,58,8.20
2018,01,18,16,59,8.20
2018,01,18,17,00,8.20
2018,01,18,17,01,8.20
2018,01,18,17,02,8.20
2018,01,18,17,03,8.20
2018,01,18,17,04,8.20
2018,01,18,17,05,8.20
2018,01,18,17,06,8.20
2018,01,18,17,07,8.20
2018,01,18,17,08,8.20
2018,01,18,17,09,8.20
2018,01,18,17,10,8.20
2018,01,18,17,11,8.20
2018,01,18,17,12,8.20
2018,01,18,17,13,8.20
2018,01,18,17,14,8.20
2018,01,18,17,15,8.10
2018,01,18,17,16,8.10
2018,01,18,17,17,8.10
2018,01,18,17,18,8.10
2018,01,18,17,19,8.10
2018,01,18,17,20,8.10
2018,01,18,17,21,8.10
2018,01,18,17,22,8.10
2018,01,18,17,23,8.10
2018,01,18,17,24,8.10
2018,01,18,17,25,8.10
2018,01,18,17,26,8.10
2018,01,18,17,27,8.10
2018,01,18,17,28,8.10
2018,01,18,17,29,8.10
2018,01,18,17,30,8.10
2018,01,18,17,31,8.10
2018,01,18,17,32,8.00
2018,01,18,17,33,8.00
2018,01,18,17,34,8.00
2018,01,18,17,35,8.00
2018,01,18,17,36,7.90
2018,01,18,17,37,7.90
2018,01,18,17,38,7.90
2018,01,18,17,39,7.90
2018,01,18,17,40,7.90
2018,01,18,17,41,7.90
2018,01,18,17,42,7.90
2018,01,18,17,43,7.90
2018,01,18,17,44,7.90
2018,01,18,17,45,7.90
2018,01,18,17,46,7.90
2018,01,18,17,47,7.80
2018,01,18,17,48,7.80
2018,01,18,17,49,7.80
2018,01,18,17,50,7.80
2018,01,18,17,51,7.80
2018,01,18,17,52,7.80
2018,01,18,17,53,7.80
2018,01,18,17,54,7.80
2018,01,18,17,55,7.80
2018,01,18,17,56,7.80
2018,01,18,17,57,7.80
2018,01,18,17,58,7.80
2018,01,18,17,59,7.80
2018,01,18,18,00,7.80